Weather History for Conroe, TX

Change the Weather History Date:

Monday, September 30, 2013

  Actual Average Record
Temperature  
Mean Temperature 78 °F -  
Max Temperature 87 °F 83 °F 93 °F (1998)
Min Temperature 71 °F 59 °F 50 °F (1999)
Cooling Degree Days 14    
Growing Degree Days 28 (Base 50)    
Moisture  
Dew Point 73 °F    
Average Humidity 93    
Maximum Humidity 100    
Minimum Humidity 62    
Precipitation  
Precipitation 0.05 in - - ()
Sea Level Pressure  
Sea Level Pressure 29.88 in    
Wind  
Wind Speed 1 mph (East)    
Max Wind Speed 10 mph    
Max Gust Speed -    
Visibility 6 miles    
Events Rain    
Averages and records for this station are not official NWS values.
T = Trace of Precipitation, MM = Missing Value Source: NWS Daily Summary

Daily Weather History Graph

Daily Weather History Graph

Search for Another Location

Airport:

Trip Planner

Search our weather history database for the weather conditions in past years. The results will help you decide how hot, cold, wet, or windy it might be!

Date:

Astronomy

Sep. 30, 2013 Rise Set
Actual Time 7:14 AM CDT 7:07 PM CDT
Civil Twilight 6:50 AM CDT 7:31 PM CDT
Nautical Twilight 6:22 AM CDT 7:59 PM CDT
Astronomical Twilight 5:54 AM CDT 8:27 PM CDT
Moon 3:08 AM CDT (9/30) 4:25 PM CDT (9/30)
Length of Visible Light 12h 41m
Length of Day
11h 53m
Waning Crescent, 19% of the Moon is Illuminated
Sep 30
Waning Crescent
Oct 4
New
Oct 11
First Quarter
Oct 18
Full
Oct 26
Last Quarter

Hourly Weather History & Observations

Time (CDT) Temp. Heat Index Dew Point Humidity Pressure Visibility Wind Dir Wind Speed Gust Speed Precip Events Conditions
12:53 AM 72.0 °F - 72.0 °F 100% 29.92 in 7.0 mi Calm Calm - N/A   Overcast
1:03 AM 71.6 °F - 71.6 °F 100% 29.92 in 1.8 mi Calm Calm - N/A   Overcast
1:28 AM 73.4 °F - 73.4 °F 100% 29.92 in 2.0 mi Calm Calm - N/A   Overcast
1:35 AM 73.4 °F - 73.4 °F 100% 29.92 in 1.5 mi Calm Calm - N/A   Overcast
1:41 AM 73.4 °F - 73.4 °F 100% 29.92 in 3.0 mi Calm Calm - 0.00 in Rain Light Rain
1:53 AM 73.0 °F - 73.0 °F 100% 29.91 in 3.0 mi Calm Calm - 0.01 in Rain Light Rain
2:14 AM 73.4 °F - 73.4 °F 100% 29.91 in 2.0 mi Calm Calm - 0.00 in   Overcast
2:24 AM 73.4 °F - 73.4 °F 100% 29.91 in 3.0 mi Calm Calm - 0.00 in   Overcast
2:38 AM 73.4 °F - 73.4 °F 100% 29.91 in 5.0 mi Calm Calm - 0.00 in   Overcast
2:53 AM 73.0 °F - 73.0 °F 100% 29.90 in 6.0 mi Calm Calm - 0.00 in   Overcast
3:09 AM 73.4 °F - 73.4 °F 100% 29.90 in 3.0 mi Calm Calm - N/A   Overcast
3:53 AM 73.0 °F - 73.0 °F 100% 29.88 in 8.0 mi NNW 3.5 mph - N/A   Overcast
4:19 AM 73.4 °F - 73.4 °F 100% 29.89 in 2.5 mi NNW 4.6 mph - 0.04 in Rain Light Rain
4:37 AM 73.4 °F - 73.4 °F 100% 29.89 in 1.5 mi Calm Calm - 0.04 in   Overcast
4:53 AM 73.0 °F - 73.0 °F 100% 29.88 in 3.0 mi Calm Calm - 0.04 in   Overcast
5:04 AM 73.4 °F - 73.4 °F 100% 29.88 in 1.8 mi Calm Calm - N/A   Overcast
5:28 AM 73.4 °F - 73.4 °F 100% 29.89 in 0.8 mi Calm Calm - N/A   Mist
5:40 AM 73.4 °F - 73.4 °F 100% 29.89 in 1.0 mi Calm Calm - N/A   Mist
5:53 AM 73.0 °F - 73.0 °F 100% 29.88 in 1.5 mi North 3.5 mph - N/A   Overcast
6:53 AM 72.0 °F - 72.0 °F 100% 29.89 in 1.0 mi NNE 3.5 mph - N/A   Overcast
7:40 AM 71.6 °F - 71.6 °F 100% 29.89 in 2.5 mi Calm Calm - N/A   Overcast
7:49 AM 71.6 °F - 71.6 °F 100% 29.89 in 3.0 mi Calm Calm - N/A   Overcast
7:53 AM 72.0 °F - 72.0 °F 100% 29.88 in 3.0 mi Calm Calm - N/A   Overcast
8:53 AM 73.0 °F - 73.0 °F 100% 29.90 in 4.0 mi Calm Calm - N/A   Overcast
9:53 AM 75.9 °F - 73.0 °F 91% 29.90 in 10.0 mi Calm Calm - N/A   Overcast
10:53 AM 75.9 °F - 73.0 °F 91% 29.91 in 10.0 mi Calm Calm - N/A   Overcast
11:33 AM 78.8 °F - 73.4 °F 83% 29.91 in 10.0 mi Calm Calm - N/A   Overcast
11:53 AM 79.0 °F - 73.0 °F 82% 29.90 in 10.0 mi Calm Calm - N/A   Overcast
12:53 PM 82.0 °F 87.4 °F 73.0 °F 74% 29.89 in 10.0 mi ESE 3.5 mph - N/A   Overcast
1:53 PM 84.0 °F 90.2 °F 73.0 °F 69% 29.86 in 10.0 mi Calm Calm - N/A   Overcast
2:32 PM 86.0 °F 91.8 °F 71.6 °F 62% 29.85 in 10.0 mi Variable 4.6 mph - N/A   Mostly Cloudy
2:53 PM 86.0 °F 92.2 °F 72.0 °F 63% 29.83 in 10.0 mi South 4.6 mph - N/A   Scattered Clouds
3:53 PM 84.0 °F 89.0 °F 71.1 °F 65% 29.82 in 10.0 mi Calm Calm - N/A   Overcast
4:53 PM 84.0 °F 90.2 °F 73.0 °F 69% 29.81 in 10.0 mi Calm Calm - N/A   Mostly Cloudy
5:53 PM 82.0 °F 87.9 °F 73.9 °F 76% 29.83 in 10.0 mi SE 10.4 mph - 0.00 in   Overcast
6:53 PM 79.0 °F - 75.9 °F 90% 29.84 in 7.0 mi South 6.9 mph - 0.00 in   Overcast
7:53 PM 77.0 °F - 75.0 °F 94% 29.85 in 9.0 mi Calm Calm - N/A   Mostly Cloudy
8:53 PM 75.0 °F - 73.9 °F 96% 29.85 in 4.0 mi Calm Calm - N/A   Clear
9:53 PM 75.0 °F - 73.9 °F 96% 29.87 in 10.0 mi East 3.5 mph - N/A   Partly Cloudy
10:06 PM 75.2 °F - 73.4 °F 94% 29.88 in 10.0 mi ESE 3.5 mph - N/A   Mostly Cloudy
10:48 PM 75.2 °F - 73.4 °F 94% 29.89 in 10.0 mi ESE 4.6 mph - N/A   Scattered Clouds
10:53 PM 75.0 °F - 73.9 °F 96% 29.88 in 10.0 mi ESE 3.5 mph - N/A   Mostly Cloudy
11:35 PM 73.4 °F - 73.4 °F 100% 29.89 in 10.0 mi ESE 3.5 mph - N/A   Mostly Cloudy
11:44 PM 73.4 °F - 73.4 °F 100% 29.89 in 10.0 mi Variable 4.6 mph - N/A   Scattered Clouds
11:53 PM 73.9 °F - 73.0 °F 97% 29.88 in 10.0 mi Variable 3.5 mph - N/A   Scattered Clouds